Date,TemperatureHighF,TemperatureAvgF,TemperatureLowF,DewpointHighF,DewpointAvgF,DewpointLowF,HumidityHigh,HumidityAvg,HumidityLow,PressureMaxIn,PressureMinIn,WindSpeedMaxMPH,WindSpeedAvgMPH,GustSpeedMaxMPH,PrecipitationSumIn
2013-1-1,49.5,45.9,41.9,46.7,39.2,29.4,90,78,54,30.07,29.89,11,0,11,0.21
2013-1-2,49.1,44.2,39.8,46.2,41.5,36.6,92,90,85,30.17,29.90,9,0,9,0.20
2013-1-3,42.6,39.1,31.9,38.1,35.8,28.7,91,88,83,30.25,30.14,6,0,6,0.00
2013-1-4,46.8,36.5,27.2,33.3,27.9,21.4,91,73,49,30.30,30.17,13,1,13,0.00
2013-1-5,50.2,36.0,25.4,30.6,24.7,19.8,81,65,37,30.38,30.25,8,0,8,0.00
2013-1-6,50.7,42.6,34.6,38.1,35.0,30.3,85,75,59,30.20,30.03,6,0,6,0.01
2013-1-7,51.1,37.7,29.4,35.9,29.9,26.1,89,75,51,30.42,30.16,7,0,9,0.01
2013-1-8,53.3,40.3,29.1,39.0,33.4,24.8,87,77,57,30.47,30.35,6,0,6,0.00
2013-1-9,61.6,48.9,37.0,51.1,43.0,33.2,86,80,67,30.39,30.31,0,0,0,0.00
2013-1-10,62.4,52.6,45.7,49.7,42.6,32.9,89,70,50,30.51,30.38,11,0,11,0.00
2013-1-11,53.5,47.9,42.9,50.6,42.1,32.2,92,81,60,30.43,30.12,11,0,11,0.18
2013-1-12,66.6,58.6,51.9,62.7,56.0,49.6,93,91,87,30.14,30.07,6,0,6,0.00
2013-1-13,73.7,62.3,57.8,65.0,58.8,55.1,93,89,70,30.11,30.01,11,0,11,0.01
2013-1-14,66.9,65.6,64.7,62.8,62.2,60.8,91,89,81,30.10,30.05,1,0,1,0.05
2013-1-15,54.8,47.7,45.8,52.2,45.8,43.6,94,93,91,30.23,30.04,13,1,13,0.04
2013-1-16,53.9,49.1,46.1,51.9,47.4,44.4,95,94,94,30.06,29.93,10,0,10,0.16
2013-1-17,55.0,49.5,36.5,53.6,48.0,34.9,95,94,94,30.11,29.88,15,1,17,1.01
2013-1-18,43.3,37.0,29.8,37.7,33.5,26.6,94,87,70,30.53,30.11,10,1,10,0.37
2013-1-19,52.6,36.9,27.3,38.7,30.3,24.4,91,78,50,30.49,30.11,9,0,9,0.01
2013-1-20,62.0,45.8,34.6,40.3,33.8,27.3,84,65,39,30.11,29.95,16,1,16,0.00
2013-1-21,58.0,42.1,28.7,34.4,27.3,14.3,87,59,31,30.06,29.83,11,1,11,0.00
2013-1-22,37.0,33.1,25.7,19.8,8.3,1.7,52,36,24,30.24,29.92,16,3,16,0.00
2013-1-23,38.5,27.4,16.1,17.6,10.7,5.7,67,51,31,30.36,30.04,15,1,15,0.00
2013-1-24,35.5,30.7,20.8,23.7,14.7,5.2,70,52,34,30.51,29.93,18,3,18,0.00
2013-1-25,28.5,23.5,16.9,24.8,13.8,4.5,86,67,45,30.52,30.08,6,0,6,0.00
2013-1-26,35.5,31.0,26.3,31.8,27.7,23.3,89,88,85,30.38,30.06,6,0,6,0.93
2013-1-27,39.3,30.7,23.8,31.0,25.8,20.7,91,82,69,30.58,30.38,9,0,9,0.08
2013-1-28,50.7,41.4,28.1,46.0,35.7,23.6,87,80,65,30.49,30.19,10,0,10,12.28
2013-1-29,71.5,58.0,49.2,57.4,51.4,45.6,91,79,60,30.20,30.02,9,0,9,0.00
2013-1-30,71.5,67.2,60.2,63.5,61.3,55.7,89,82,74,30.02,29.32,17,2,17,0.06
2013-1-31,67.4,49.0,40.8,62.4,34.5,19.6,88,60,36,29.96,29.35,25,4,25,0.38
2013-2-1,26.7,24.8,22.4,8.9,7.5,6.0,54,47,41,30.38,30.31,4,0,4,0.00
2013-2-2,42.9,30.2,17.5,29.1,12.4,6.9,71,49,28,30.39,30.02,9,0,9,0.00
2013-2-7,45.4,44.5,44.1,42.4,41.4,40.4,90,89,86,30.13,30.00,11,2,11,0.25
2013-2-8,53.9,45.5,38.9,47.6,40.6,29.6,92,83,63,30.01,29.77,17,3,17,0.47
2013-2-9,51.3,38.1,28.1,30.0,23.8,18.3,81,59,30,30.34,30.00,18,2,18,0.00
2013-2-10,52.8,39.7,26.4,37.4,22.8,16.8,75,52,29,30.48,30.18,9,0,9,0.02
2013-2-11,64.7,56.5,43.9,62.0,53.0,37.2,91,88,75,30.18,29.87,15,0,15,0.03
2013-2-12,60.1,51.7,40.8,55.6,39.5,30.2,92,66,34,30.05,29.89,13,1,13,0.00
2013-2-13,49.9,47.6,41.2,47.3,41.5,36.5,91,80,67,29.92,29.60,6,0,6,0.35
2013-2-14,51.9,41.0,33.4,39.2,34.3,29.3,92,78,54,30.05,29.79,8,0,8,0.01
2013-2-15,61.5,49.5,38.8,37.9,33.4,30.6,75,56,37,29.96,29.90,11,1,11,0.00
2013-2-16,45.2,38.7,31.9,34.9,32.2,29.0,89,78,64,29.95,29.81,13,1,13,0.16
2013-2-17,35.2,28.4,20.5,29.5,17.1,10.9,89,65,39,30.28,29.88,20,2,20,0.03
2013-2-18,51.7,31.8,17.2,24.9,18.1,10.7,83,60,29,30.41,30.23,9,0,10,0.00
2013-2-19,53.1,42.5,31.0,49.9,37.1,23.9,91,81,65,30.23,29.82,11,0,11,0.11
2013-2-20,51.4,39.1,27.0,37.5,24.1,15.7,90,60,27,30.12,29.92,15,1,15,0.00
2013-2-21,53.3,38.7,23.2,23.8,19.8,15.2,75,49,27,30.24,30.10,11,1,11,0.00
2013-2-22,40.3,36.4,31.8,35.5,29.5,20.3,89,77,46,30.33,30.13,10,1,10,0.21
2013-2-23,45.7,41.7,38.5,43.6,39.3,35.5,93,91,89,30.12,29.78,9,0,9,0.48
2013-2-24,61.6,50.1,35.0,47.5,38.8,28.2,93,68,38,30.01,29.76,13,1,13,0.01
2013-2-25,42.1,36.4,31.5,29.7,24.2,21.9,77,61,48,30.21,30.01,10,1,10,0.00
2013-2-26,60.5,45.4,33.2,58.3,40.6,24.1,93,83,66,30.14,29.53,17,3,17,0.75
2013-2-28,47.1,39.9,33.2,29.4,27.7,25.8,74,62,50,29.83,29.71,14,1,14,0.00
2013-3-1,47.4,39.0,28.5,36.0,28.4,24.0,86,67,50,29.88,29.80,13,1,13,0.00
2013-3-2,47.1,40.2,29.0,28.4,24.6,17.4,64,54,44,29.89,29.78,13,2,13,0.00
2013-3-3,44.8,33.9,27.0,24.8,20.6,16.3,75,59,40,29.94,29.82,14,2,14,0.00
2013-3-4,49.9,40.1,29.0,19.1,16.8,14.0,64,41,26,30.06,29.97,15,2,15,0.00
2013-3-5,53.6,42.9,29.3,44.6,33.8,18.4,91,72,38,30.06,29.54,11,1,11,0.48
2013-3-6,44.1,40.6,36.6,41.1,34.9,29.4,91,80,66,29.99,29.48,30,5,30,0.03
2013-3-7,49.4,40.8,30.7,35.6,29.9,25.3,85,66,50,30.19,29.99,15,2,15,0.01
2013-3-8,54.7,49.8,41.6,32.8,27.2,24.3,63,42,33,30.25,30.10,18,5,18,0.00
2013-3-9,62.0,50.3,35.9,31.4,28.6,26.5,70,46,28,30.31,30.20,9,1,10,0.00
2013-3-10,67.1,48.8,31.0,39.4,27.5,22.7,84,50,20,30.30,30.18,8,0,11,0.00
2013-3-11,70.8,56.1,40.5,52.0,43.1,25.3,84,63,42,30.21,29.90,10,1,10,0.00
2013-3-12,69.3,61.9,50.8,63.1,54.3,37.0,91,77,57,29.90,29.71,16,2,16,0.58
2013-3-13,53.3,44.5,37.2,28.1,22.1,17.9,47,41,32,30.11,29.92,15,4,15,0.00
2013-3-14,37.0,34.6,32.5,18.5,17.0,16.1,51,48,47,30.15,30.10,11,2,11,0.00
2013-3-15,58.7,47.5,41.8,34.0,32.6,31.4,69,57,39,29.89,29.86,7,0,7,0.00
2013-3-16,76.7,67.5,41.9,50.0,47.3,32.5,73,50,36,29.86,29.58,11,1,11,0.00
2013-3-17,57.2,49.1,40.5,52.4,42.8,35.4,88,79,71,30.17,29.78,14,2,14,0.00
2013-3-18,44.9,42.2,40.1,42.9,39.7,36.4,93,91,86,30.18,29.83,10,1,10,0.20
2013-3-19,66.9,52.2,43.1,49.6,37.5,14.7,93,65,24,29.99,29.79,15,2,15,0.01
2013-3-20,56.2,44.6,32.2,24.0,17.3,8.9,61,35,23,30.08,29.76,10,1,11,0.00
2013-3-21,44.6,37.6,28.7,30.3,19.3,8.9,72,49,29,29.95,29.70,18,3,18,0.00
2013-3-22,51.3,36.2,20.6,20.9,14.6,10.9,69,44,23,30.04,29.93,13,1,13,0.00
2013-3-23,55.3,42.3,30.6,30.9,25.6,19.8,74,54,31,30.03,29.88,8,0,8,0.00
2013-3-24,40.8,38.4,34.3,37.8,33.5,26.4,90,83,71,29.90,29.54,15,1,15,0.57
2013-3-25,47.4,40.5,37.0,40.3,32.5,25.1,91,75,48,29.77,29.53,21,2,21,0.02
2013-3-26,38.8,38.5,37.9,26.4,25.7,25.3,62,60,59,29.80,29.77,8,1,8,0.00
2013-3-27,52.9,42.9,31.8,25.8,21.5,19.8,65,44,33,30.19,30.11,17,2,17,0.00
2013-3-28,56.7,41.9,27.3,31.7,24.4,21.0,80,53,29,30.25,30.12,17,2,17,0.00
2013-3-29,61.3,44.4,29.4,35.1,26.5,21.4,80,53,27,30.31,30.14,13,1,13,0.00
2013-3-30,67.4,50.4,33.7,41.9,32.2,25.9,78,54,26,30.22,30.05,8,0,8,0.00
2013-3-31,67.9,59.2,50.8,57.3,51.6,41.6,88,76,66,30.06,29.76,16,1,16,0.25
2013-4-1,71.6,64.7,49.9,56.8,43.9,32.9,87,50,34,29.94,29.74,15,4,16,0.00
2013-4-2,60.7,47.8,33.5,34.3,27.3,20.0,77,48,23,30.12,29.94,16,1,16,0.00
2013-4-3,60.2,47.0,34.1,29.5,24.2,19.7,66,43,23,30.25,30.10,11,1,11,0.00
2013-4-4,49.4,42.5,37.9,39.2,30.6,20.8,89,64,41,30.35,29.89,13,2,13,0.70
2013-4-5,65.0,49.6,42.1,50.5,43.3,37.4,91,80,52,29.96,29.82,10,1,10,0.03
2013-4-6,64.8,53.7,41.9,38.5,32.6,25.9,85,48,27,30.23,29.96,11,1,11,0.00
2013-4-7,72.7,66.4,46.7,43.3,41.2,34.8,63,41,34,30.23,30.03,10,2,10,0.00
2013-4-8,80.1,69.7,53.2,58.5,54.7,49.1,88,61,37,30.11,29.95,11,1,11,0.00
2013-4-9,84.1,74.6,61.3,63.4,59.0,54.8,87,61,37,30.10,29.99,10,1,10,0.00
2013-4-10,87.6,83.9,70.6,58.1,56.4,54.7,63,40,35,29.90,29.84,9,1,9,0.00
2013-4-11,81.6,74.3,68.6,64.4,61.4,57.8,77,65,45,29.83,29.72,7,1,7,0.00
2013-4-12,73.0,70.3,68.3,68.7,64.8,62.7,90,83,77,29.73,29.63,13,1,13,0.57
2013-4-14,68.1,66.5,64.7,51.2,47.7,44.5,61,51,45,30.03,29.99,2,0,2,0.00
2013-4-15,70.8,63.9,58.1,58.1,55.3,51.5,86,74,61,30.18,29.99,11,1,13,0.07
2013-4-16,76.3,64.9,58.9,62.7,57.8,52.8,91,79,54,30.28,30.16,9,0,9,0.00
2013-4-17,82.8,70.2,58.9,66.3,61.3,53.4,90,75,52,30.19,30.06,10,0,10,0.00
2013-4-18,80.7,69.9,59.9,64.9,59.5,55.4,88,71,48,30.16,30.00,10,0,10,0.00
2013-4-19,81.6,71.8,65.2,69.5,65.1,58.6,90,80,62,30.01,29.66,20,1,20,0.49
2013-4-20,68.6,55.2,44.1,65.5,42.5,32.4,90,65,32,30.25,29.75,14,1,14,0.17
2013-4-21,61.2,50.5,42.1,42.0,37.9,35.1,84,63,46,30.48,30.25,14,1,14,0.00
2013-4-22,60.1,48.8,36.0,43.7,38.8,31.6,85,69,48,30.47,30.25,14,2,14,0.00
2013-4-23,68.4,54.7,48.6,51.7,45.7,42.3,83,72,51,30.25,30.09,9,0,9,0.00
2013-4-24,77.0,62.5,49.4,58.5,52.7,45.4,90,72,48,30.11,29.92,15,1,15,0.00
2013-4-25,71.3,60.3,50.1,57.1,46.9,39.8,83,63,38,30.25,29.96,9,1,13,0.00
2013-4-26,73.2,59.0,44.9,49.7,43.0,35.0,89,60,27,30.40,30.25,11,0,11,0.00
2013-4-27,73.9,61.9,50.5,51.7,45.9,41.5,76,58,33,30.35,30.22,9,0,9,0.00
2013-4-28,61.6,58.1,54.8,55.7,49.5,43.3,88,73,64,30.23,30.08,7,0,7,0.20
2013-4-29,73.2,64.1,56.6,64.5,59.9,53.1,91,86,73,30.08,29.93,8,0,8,0.78
2013-4-30,67.3,62.6,56.7,60.4,58.3,51.9,92,86,75,30.14,29.96,10,0,10,0.01
2013-5-1,62.3,59.9,59.0,59.1,56.7,55.6,90,89,87,30.30,30.13,11,1,11,0.01
2013-5-2,62.3,59.4,53.9,57.5,55.5,49.5,91,87,82,30.31,30.23,10,0,10,0.01
2013-5-3,69.3,57.1,48.3,57.4,49.1,43.1,91,76,49,30.25,30.15,13,1,13,0.01
2013-5-4,62.0,54.5,49.2,53.1,48.2,43.3,86,79,70,30.20,30.07,9,1,9,0.01
2013-5-5,59.8,54.8,49.4,55.1,50.2,45.1,88,85,77,30.09,29.98,11,1,11,0.03
2013-5-6,67.9,62.3,57.3,64.5,59.4,53.8,92,90,86,29.99,29.80,15,0,15,0.69
2013-5-7,70.8,63.1,55.3,62.3,57.3,51.2,93,82,57,29.92,29.82,13,0,13,0.12
2013-5-8,70.8,62.0,54.1,61.7,56.9,50.6,91,84,66,29.98,29.89,8,0,8,0.04
2013-5-9,80.5,67.1,55.4,63.5,57.7,51.9,91,74,44,30.02,29.94,11,0,11,0.01
2013-5-10,85.5,71.6,58.4,67.1,60.3,54.2,88,70,43,30.02,29.89,8,0,8,0.00
2013-5-11,81.6,71.9,65.5,66.0,63.2,59.2,88,75,53,29.90,29.74,10,0,10,0.03
2013-5-12,72.3,65.8,53.3,65.2,51.9,34.8,90,64,30,29.99,29.74,14,0,14,0.01
2013-5-13,66.3,55.6,42.8,45.2,38.0,31.7,83,54,30,30.16,29.99,9,0,9,0.00
2013-5-14,69.9,56.2,39.8,46.9,40.1,34.2,85,58,30,30.24,30.05,4,0,9,0.00
2013-5-15,87.4,68.5,53.1,63.8,55.1,44.1,79,64,42,30.05,29.83,0,0,11,0.00
2013-5-16,86.1,73.4,62.9,67.3,61.2,58.3,87,67,42,29.93,29.84,4,0,4,0.00
2013-5-17,88.6,74.7,63.1,67.2,62.4,58.6,88,68,39,30.04,29.93,8,0,8,0.00
2013-5-18,77.4,69.8,63.2,68.9,63.4,57.1,89,80,70,30.14,30.02,9,0,9,0.33
2013-5-19,76.9,70.3,65.6,71.5,66.9,62.3,91,89,82,30.12,30.02,7,0,10,0.44
2013-5-20,78.6,72.6,69.4,73.6,69.1,66.6,92,89,81,30.07,29.99,7,0,7,0.63
2013-5-21,85.3,75.6,71.3,74.5,70.3,67.2,92,84,65,30.01,29.90,8,0,8,0.00
2013-5-22,84.7,75.6,70.9,72.2,69.0,66.2,90,80,63,29.99,29.86,9,0,9,0.00
2013-5-23,82.8,74.4,70.8,71.3,68.5,66.3,90,82,64,29.91,29.77,9,0,9,0.08
2013-5-24,72.7,64.9,51.3,69.1,54.8,39.0,91,72,42,30.15,29.76,18,2,18,0.23
2013-5-25,51.4,47.9,44.1,40.6,39.1,37.2,77,71,64,30.17,30.15,0,0,1,0.00
2013-5-26,66.4,58.7,54.4,51.4,48.6,46.7,76,69,57,30.19,30.14,1,0,1,0.00
2013-5-27,81.2,71.3,53.5,60.6,54.6,46.3,80,57,41,30.25,30.12,7,0,7,0.00
2013-5-28,84.0,71.8,59.9,68.7,61.6,53.1,87,71,56,30.22,30.09,13,0,13,0.00
2013-5-29,85.7,74.2,64.3,67.6,63.6,60.0,89,71,49,30.20,30.11,9,0,9,0.00
2013-5-30,87.2,74.9,63.9,69.6,64.2,60.0,90,71,46,30.23,30.13,8,0,8,0.00
2013-5-31,87.6,76.7,67.3,71.8,66.4,62.0,89,72,44,30.18,30.06,11,0,11,0.00
2013-6-1,88.2,77.5,69.4,70.9,66.8,61.8,90,71,48,30.10,29.97,10,0,10,0.00
2013-6-2,87.2,76.8,68.8,69.8,67.0,63.2,86,72,53,30.00,29.86,10,0,10,0.06
2013-6-3,82.4,76.0,73.7,73.9,71.5,68.5,91,86,70,29.91,29.79,7,0,7,0.17
2013-6-5,83.2,75.9,68.8,63.5,60.6,55.5,68,59,46,30.02,29.99,10,0,10,0.00
2013-6-6,75.8,71.0,65.0,71.8,65.7,55.7,91,83,64,30.02,29.79,13,0,13,0.29
2013-6-7,78.3,74.6,73.0,75.4,72.2,70.2,93,92,91,29.81,29.45,10,0,11,2.47
2013-6-8,84.0,75.9,69.3,73.8,71.0,67.0,93,85,65,30.05,29.76,16,0,16,0.03
2013-6-9,88.0,78.5,70.6,76.2,71.9,67.2,90,80,63,30.12,30.01,8,0,8,0.02
2013-6-10,82.0,77.3,73.5,77.2,73.6,68.7,91,88,82,30.05,29.84,13,0,13,0.51
2013-6-11,84.9,77.2,70.6,72.2,68.7,64.6,90,76,55,29.90,29.83,14,0,14,0.00
2013-6-12,90.5,79.3,70.3,75.7,71.0,65.6,90,77,55,29.92,29.81,9,0,9,0.00
2013-6-13,78.5,77.8,77.6,74.7,73.5,72.7,88,86,85,29.81,29.76,0,0,0,0.00
2013-6-14,79.9,72.4,62.9,69.4,60.9,56.3,90,69,47,29.97,29.66,6,0,14,0.00
2013-6-15,84.0,69.4,60.7,65.3,60.4,55.5,85,74,48,30.03,29.97,7,0,7,0.00
2013-6-16,87.0,75.1,63.7,71.2,65.1,57.5,83,72,56,30.07,29.96,13,0,13,0.00
2013-6-17,84.9,76.7,71.3,74.4,69.4,65.5,84,78,66,29.99,29.88,7,0,7,0.00
2013-6-18,83.4,76.3,72.5,74.6,71.6,69.4,90,85,74,29.92,29.71,13,0,13,0.63
2013-6-19,79.8,73.6,68.3,69.7,67.5,65.2,92,81,67,30.08,29.82,7,0,7,0.01
2013-6-20,82.2,73.3,64.8,66.7,63.3,53.7,90,72,54,30.22,30.08,7,0,7,0.00
2013-6-21,83.4,71.3,56.9,66.4,58.8,51.4,87,66,43,30.23,30.15,7,0,7,0.00
2013-6-22,81.8,74.4,71.1,72.5,69.0,66.4,89,83,70,30.20,30.08,9,0,9,0.01
2013-6-23,85.9,78.1,72.0,75.0,72.0,68.9,91,82,68,30.19,30.08,9,0,9,0.00
2013-6-24,87.8,79.6,74.6,76.6,73.2,70.6,90,81,64,30.17,30.04,7,0,7,0.00
2013-6-25,89.5,78.7,73.0,77.5,72.0,68.2,90,80,63,30.08,29.96,9,0,9,0.00
2013-6-26,90.5,78.9,72.7,77.8,71.9,65.3,90,80,60,29.98,29.83,18,0,18,0.30
2013-6-27,88.6,79.5,72.5,77.9,73.6,69.4,92,82,65,29.87,29.66,11,0,11,0.08
2013-6-28,78.8,76.3,73.2,74.7,72.3,65.6,90,87,76,29.71,29.55,7,0,10,0.73
2013-6-29,84.3,78.3,74.4,76.2,73.8,71.6,92,86,73,29.68,29.54,7,0,7,0.57
2013-6-30,85.7,78.8,74.6,78.4,74.3,69.8,92,86,75,29.82,29.67,6,0,6,0.72
2013-7-1,82.6,77.5,74.0,76.0,73.7,71.2,92,88,80,29.95,29.80,6,0,6,1.17
2013-7-2,78.3,76.8,74.9,75.4,74.0,71.9,93,91,89,30.15,29.95,6,0,6,0.35
2013-7-3,85.9,79.4,76.8,79.5,76.2,73.2,93,90,77,30.20,30.11,8,0,9,0.48
2013-7-4,87.6,80.7,75.4,78.7,75.3,71.1,93,84,66,30.25,30.14,7,0,7,0.00
2013-7-5,89.9,81.3,75.1,77.4,74.5,71.2,91,80,62,30.24,30.12,7,0,7,0.00
2013-7-6,87.4,80.7,76.3,76.4,73.9,71.3,90,80,66,30.21,30.08,6,0,7,0.00
2013-7-7,88.8,79.6,72.5,77.3,73.2,68.7,90,81,65,30.15,30.02,8,0,8,0.00
2013-7-8,89.5,79.3,75.3,76.5,73.5,70.2,91,83,61,30.14,30.04,8,0,8,0.93
2013-7-9,88.8,79.1,74.6,79.4,74.3,68.3,91,85,68,30.11,30.02,9,0,10,0.41
2013-7-10,87.6,79.9,74.6,78.4,75.2,70.2,92,86,71,30.07,29.90,9,0,9,0.16
2013-7-11,81.6,77.8,75.4,77.1,74.4,71.6,92,89,82,29.94,29.84,8,0,8,0.83
2013-7-12,77.6,75.6,73.8,75.1,72.3,69.6,92,89,84,29.98,29.82,10,0,10,0.01
2013-7-13,79.9,76.6,73.3,76.7,73.6,70.5,92,90,87,30.16,29.97,8,0,8,0.15
2013-7-14,87.4,79.9,75.6,77.4,74.2,70.8,93,83,65,30.26,30.16,10,0,10,0.00
2013-7-15,90.3,80.9,72.3,76.6,72.4,69.2,91,76,55,30.28,30.20,0,0,0,0.00
2013-7-16,94.0,82.5,74.4,79.1,74.4,70.1,91,77,56,30.22,30.12,2,0,4,0.00
2013-7-17,94.0,84.3,76.1,79.1,74.9,72.2,90,74,52,30.17,30.05,7,0,7,0.00
2013-7-18,95.4,82.5,77.0,79.8,75.8,72.4,89,81,55,30.09,29.99,4,0,4,0.00
2013-7-19,90.1,81.9,77.4,79.6,75.5,71.8,90,81,65,30.03,29.92,6,0,6,0.00
2013-7-20,89.3,81.0,76.8,78.2,74.4,72.5,88,81,66,29.97,29.85,8,0,8,0.00
2013-7-21,89.0,79.8,75.6,77.6,74.0,71.8,88,83,67,29.94,29.84,6,0,6,0.00
2013-7-22,88.0,80.6,76.0,77.9,74.4,72.0,90,82,66,29.89,29.75,8,0,8,0.00
2013-7-23,89.7,81.5,76.3,75.5,73.4,71.3,89,77,58,29.78,29.65,9,0,9,0.00
2013-7-24,92.9,81.9,74.2,77.5,72.1,67.3,90,74,46,29.79,29.66,7,0,7,0.00
2013-7-25,80.7,74.8,70.9,70.8,68.6,66.5,88,81,67,29.89,29.76,7,0,7,0.01
2013-7-26,78.5,73.2,70.9,66.9,65.4,64.6,83,77,67,30.02,30.00,0,0,0,0.00
2013-7-27,87.0,76.8,69.1,73.4,69.5,64.4,89,79,57,30.02,29.88,9,0,9,0.12
2013-7-28,86.5,78.3,73.7,75.7,72.2,69.1,91,82,65,29.95,29.87,7,0,7,0.01
2013-7-29,87.4,77.4,69.3,72.9,69.4,63.0,90,77,56,30.11,29.94,7,0,8,0.13
2013-7-30,88.0,75.4,63.2,71.1,66.2,59.3,88,74,48,30.19,30.09,7,0,7,0.00
2013-7-31,84.0,76.0,73.2,74.8,71.0,67.0,90,85,71,30.11,29.96,7,0,7,0.07
2013-8-1,84.7,77.3,73.0,75.9,73.1,69.9,92,87,73,29.98,29.81,6,0,7,0.15
2013-8-2,88.2,78.0,69.4,74.1,70.0,66.5,91,77,54,29.97,29.85,2,0,2,0.01
2013-8-3,87.2,77.9,72.7,77.8,72.8,67.9,90,84,70,29.97,29.87,7,0,7,0.44
2013-8-4,85.7,75.9,67.1,74.2,68.2,61.4,92,78,50,29.99,29.84,7,0,7,0.00
2013-8-5,82.0,73.1,64.5,67.9,64.5,60.9,90,75,51,30.06,29.97,6,0,6,0.00
2013-8-6,81.2,74.7,70.3,72.8,68.8,64.5,90,82,72,30.02,29.95,6,0,6,0.17
2013-8-7,85.5,77.8,71.3,74.0,70.9,67.6,90,80,62,30.06,29.98,6,0,6,0.00
2013-8-8,87.8,80.0,73.3,75.8,72.8,69.5,89,79,61,30.03,29.95,7,0,7,0.00
2013-8-9,91.2,82.4,76.7,78.2,74.9,72.2,90,79,60,30.00,29.92,11,0,11,0.00
2013-8-10,91.8,81.2,76.7,79.7,75.1,71.9,90,82,63,30.04,29.96,9,0,9,0.13
2013-8-11,91.8,81.8,76.0,77.8,74.7,72.6,91,80,57,30.07,29.96,4,0,6,0.00
2013-8-12,92.5,82.0,76.0,76.1,73.2,69.4,90,76,51,30.00,29.88,7,0,7,0.00
2013-8-13,89.0,79.3,74.2,78.0,73.5,69.9,90,83,66,29.93,29.73,10,0,10,0.16
2013-8-14,76.5,71.9,61.0,72.4,64.7,55.8,90,79,63,30.06,29.77,9,0,9,0.00
2013-8-15,77.9,66.5,59.9,63.5,59.0,56.3,89,78,52,30.14,30.04,7,0,7,0.00
2013-8-16,73.2,66.8,60.2,64.7,60.1,56.8,91,80,66,30.15,30.06,6,0,6,0.01
2013-8-17,74.2,69.1,63.9,71.1,65.8,59.4,92,89,85,30.15,30.08,6,0,6,0.06
2013-8-18,79.8,74.9,72.1,72.7,70.3,65.4,93,86,74,30.14,30.07,10,0,10,0.04
2013-8-19,76.5,72.2,69.3,72.2,68.8,65.6,92,89,85,30.16,30.05,6,0,6,0.39
2013-8-20,83.0,75.7,70.1,75.0,71.2,67.3,93,86,75,30.15,30.07,7,0,7,0.00
2013-8-21,87.0,78.8,74.9,77.3,74.0,71.0,91,85,72,30.18,30.06,9,0,9,0.30
2013-8-22,88.6,78.0,72.7,76.6,72.5,69.9,93,84,59,30.10,29.96,8,0,8,0.01
2013-8-23,88.0,78.4,70.3,76.3,71.4,65.6,91,80,60,30.04,29.87,8,0,8,0.00
2013-8-24,84.0,74.9,67.4,65.9,61.5,57.3,86,65,45,30.25,30.04,9,0,9,0.00
2013-8-25,81.2,72.3,61.3,66.7,60.1,53.9,89,67,43,30.36,30.26,9,0,9,0.00
2013-8-26,83.4,69.1,55.4,65.5,58.5,51.9,90,71,42,30.29,30.07,7,0,7,0.00
2013-8-27,89.7,78.5,63.4,73.9,69.4,60.1,90,75,53,30.02,29.91,7,0,7,0.00
2013-8-28,80.9,77.1,72.8,75.9,73.0,69.6,91,87,79,29.94,29.81,6,0,6,0.03
2013-8-29,87.0,79.3,73.2,75.9,73.1,68.0,92,82,63,29.97,29.78,9,0,9,0.01
2013-8-30,88.8,76.7,69.8,70.8,67.3,63.6,91,74,46,30.02,29.90,6,0,6,0.00
2013-8-31,88.8,78.0,69.1,74.3,70.0,64.5,91,77,55,29.93,29.81,8,0,8,0.04
2013-9-1,87.8,78.9,73.9,77.4,73.5,68.9,91,84,67,29.86,29.74,20,0,20,1.38
2013-9-2,89.0,79.7,73.7,78.0,74.2,71.2,93,84,65,29.84,29.75,6,0,6,0.01
2013-9-3,89.3,79.4,74.6,77.6,73.3,69.9,92,82,58,29.89,29.75,8,0,8,0.00
2013-9-4,85.7,76.2,70.6,72.2,68.7,65.9,90,78,60,30.05,29.89,7,0,7,0.00
2013-9-5,88.0,75.3,66.4,69.4,63.5,51.4,92,70,36,30.06,29.98,8,0,8,0.01
2013-9-6,84.1,72.4,61.5,67.1,61.3,56.0,85,70,43,30.14,30.04,6,0,6,0.00
2013-9-7,84.1,70.7,60.1,66.7,61.7,56.6,90,75,52,30.10,29.94,6,0,6,0.00
2013-9-8,90.1,74.8,65.6,69.5,64.9,60.0,90,74,39,29.94,29.86,6,0,6,0.01
2013-9-9,88.0,76.6,67.9,72.1,68.4,64.4,90,77,55,30.10,29.94,6,0,6,0.00
2013-9-10,90.1,78.8,70.9,74.3,70.0,67.2,90,76,53,30.20,30.10,7,0,7,0.00
2013-9-11,89.7,79.6,70.3,73.4,70.0,65.5,90,73,54,30.16,30.03,6,0,6,0.00
2013-9-12,90.3,78.4,70.8,74.5,70.4,66.5,90,77,55,30.03,29.75,10,0,10,0.00
2013-9-13,84.5,75.3,63.4,70.2,63.8,53.7,89,70,39,29.85,29.71,10,0,10,0.00
2013-9-14,77.9,65.6,57.6,56.0,51.4,48.4,78,62,39,30.11,29.85,10,0,10,0.00
2013-9-15,61.2,55.0,52.5,56.2,49.6,47.6,88,82,77,30.19,30.11,2,0,2,0.00
2013-9-21,74.6,73.3,70.1,71.1,70.2,67.3,91,90,88,29.70,29.69,9,0,9,0.55
2013-9-22,78.5,69.4,59.8,67.5,62.0,54.6,93,78,54,29.86,29.68,11,0,11,0.38
2013-9-23,73.5,62.3,54.5,56.3,53.3,50.1,87,73,52,30.05,29.86,9,0,9,0.00
2013-9-24,77.4,63.2,53.9,61.4,55.8,50.1,90,78,54,30.08,29.92,6,0,6,0.00
2013-9-25,74.6,64.4,54.1,63.8,58.6,50.9,91,82,61,29.93,29.84,2,0,7,0.01
2013-9-26,77.6,66.5,58.4,61.9,57.6,52.6,90,74,47,30.01,29.84,9,0,9,0.00
2013-9-27,73.7,62.3,54.1,63.4,55.2,50.1,91,78,58,30.16,30.01,8,0,8,0.00
2013-9-28,72.8,61.5,52.9,59.6,54.1,49.7,91,78,59,30.24,30.14,11,0,11,0.01
2013-9-29,75.3,60.8,51.9,60.7,54.0,48.7,91,80,51,30.15,30.01,2,0,2,0.00
2013-9-30,76.0,62.4,54.1,62.9,55.1,50.9,91,78,51,30.08,29.97,6,0,6,0.01
2013-10-1,83.4,66.4,54.8,65.4,57.6,51.3,91,75,46,30.10,29.98,0,0,0,0.00
2013-10-2,85.3,69.6,59.9,67.6,59.9,56.9,91,74,41,30.10,29.99,0,0,0,0.01
2013-10-3,85.3,71.1,61.5,69.2,62.6,58.0,90,76,48,30.10,30.01,0,0,0,0.00
2013-10-4,87.0,72.4,64.5,69.8,64.2,60.7,91,77,48,30.09,30.00,0,0,0,0.00
2013-10-5,89.3,74.2,65.5,72.8,65.2,62.1,90,75,45,30.08,29.98,0,0,0,0.00
2013-10-6,84.0,73.7,64.3,72.1,67.5,61.0,91,81,64,30.03,29.90,0,0,0,0.00
2013-10-7,76.8,72.7,63.4,74.3,69.8,60.1,92,91,86,29.96,29.81,0,0,0,0.99
2013-10-8,63.4,59.8,58.1,60.1,51.0,48.0,89,72,67,30.18,29.96,0,0,0,0.00
2013-10-9,61.6,58.6,56.6,55.3,52.6,49.2,90,81,72,30.17,30.05,0,0,0,0.13
2013-10-10,62.6,59.2,56.5,59.9,56.6,53.6,92,91,90,30.05,29.90,0,0,0,0.11
2013-10-11,66.4,63.4,61.6,62.7,60.7,59.4,93,91,87,29.93,29.87,0,0,0,0.03
2013-10-12,69.6,66.2,63.7,65.9,63.4,60.7,93,91,88,30.04,29.91,0,0,0,0.02
2013-10-13,68.6,66.2,65.0,66.0,63.9,62.9,93,92,90,30.17,30.04,0,0,0,0.09
2013-10-14,66.8,64.1,58.7,64.5,61.6,56.0,94,92,88,30.21,30.15,0,0,0,0.09
2013-10-15,70.8,62.6,53.1,63.2,58.4,50.9,94,87,75,30.17,30.03,0,0,0,0.01
2013-10-16,70.9,66.5,62.6,64.4,62.4,59.3,91,87,77,30.03,29.92,0,0,0,0.00
2013-10-17,74.7,67.9,62.3,67.3,63.6,59.6,93,86,73,29.93,29.79,0,0,0,0.00
2013-10-18,69.3,62.8,53.8,65.4,54.3,-5.3,90,74,53,30.01,29.83,0,0,0,0.00
2013-10-19,70.3,63.9,59.3,65.4,60.1,55.3,90,88,84,29.95,29.77,0,0,0,0.02
2013-10-20,64.2,55.8,47.1,58.5,49.1,42.4,92,80,48,30.08,29.86,0,0,0,0.01
2013-10-21,52.5,52.1,51.9,47.6,47.4,47.0,84,84,83,30.01,29.98,0,0,0,0.00
2013-10-22,65.6,58.5,51.7,59.0,54.1,47.0,90,85,77,29.98,29.77,0,0,0,0.01
2013-10-23,64.5,57.9,45.4,60.3,48.9,34.9,92,74,45,29.95,29.64,0,0,0,0.01
2013-10-24,58.7,46.1,36.3,40.6,35.0,31.7,86,67,42,30.16,29.95,0,0,0,0.00
2013-10-25,55.3,45.1,36.0,37.1,32.5,27.5,82,63,39,30.31,30.14,0,0,0,0.00
2013-10-26,58.0,49.9,41.1,38.7,34.8,32.2,77,58,40,30.27,30.03,0,0,0,0.00
2013-10-27,66.8,51.8,40.8,46.0,39.7,35.1,84,66,39,30.09,30.01,0,0,0,0.00
2013-10-28,71.3,56.5,45.1,54.8,48.6,40.6,89,76,49,30.22,30.08,0,0,0,0.00
2013-10-29,72.5,60.7,54.5,58.8,54.2,50.7,90,80,58,30.29,30.20,0,0,0,0.00
2013-10-30,71.6,61.7,56.2,61.5,56.6,52.7,91,84,66,30.25,30.11,0,0,0,0.01
2013-10-31,74.9,65.4,58.4,63.4,58.6,55.4,92,79,60,30.15,29.87,0,0,0,0.00
2013-11-1,71.8,69.5,66.4,67.2,65.2,61.3,93,86,77,29.87,29.61,0,0,0,0.51
2013-11-2,70.9,62.2,51.7,64.2,54.8,42.6,93,79,44,29.88,29.63,0,0,0,0.02
2013-11-3,63.1,49.4,40.1,44.6,38.7,32.7,88,68,43,30.33,29.88,0,0,0,0.00
2013-11-4,53.9,42.9,34.9,37.4,32.1,29.4,82,67,45,30.53,30.33,0,0,0,0.00
2013-11-5,58.3,48.2,36.5,48.4,41.0,30.5,85,76,66,30.51,30.38,0,0,0,0.00
2013-11-6,70.6,56.2,45.2,56.0,49.9,41.8,90,80,58,30.39,30.05,0,0,0,0.00
2013-11-7,68.1,60.9,45.7,64.0,53.7,32.3,92,78,52,30.06,29.85,0,0,0,0.05
2013-11-8,46.2,38.1,31.6,32.5,28.7,25.8,81,69,51,30.28,30.05,0,0,0,0.00
2013-11-9,57.3,42.0,31.5,38.0,30.4,25.8,85,67,37,30.33,30.19,0,0,0,0.00
2013-11-11,39.3,37.9,37.0,31.6,30.7,29.8,79,75,69,30.17,30.12,0,0,0,0.00
2013-11-12,60.2,41.4,34.0,43.3,31.7,16.8,86,70,44,30.40,30.02,0,0,0,0.00
2013-11-13,44.5,32.9,25.7,22.0,17.1,13.9,72,53,33,30.52,30.40,0,0,0,0.00
2013-11-14,56.9,37.9,24.2,32.3,22.9,17.9,83,60,27,30.45,30.32,0,0,0,0.00
2013-11-18,57.5,54.5,51.9,43.0,34.7,30.2,61,48,41,29.94,29.88,0,0,0,0.00
2013-11-19,55.3,46.2,38.8,32.2,27.9,22.3,66,50,36,30.30,29.94,0,0,0,0.00
2013-11-20,51.3,40.7,35.2,36.6,29.3,25.6,76,64,49,30.43,30.30,0,0,0,0.00
2013-11-21,59.3,47.5,39.9,47.7,41.0,33.6,83,78,65,30.48,30.36,0,0,0,0.00
2013-11-22,68.8,58.6,47.6,60.3,52.4,41.8,87,80,71,30.37,30.04,0,0,0,0.00
2013-11-23,63.9,56.2,41.6,60.7,45.2,21.1,90,69,42,30.14,30.00,0,0,0,0.04
2013-11-24,41.6,31.4,21.6,22.6,9.8,1.4,56,41,27,30.53,30.14,0,0,0,0.00
2013-11-25,41.1,29.1,16.7,17.1,11.4,8.5,74,50,27,30.58,30.36,0,0,0,0.00
2013-11-26,69.4,45.8,33.8,68.2,36.5,17.1,96,71,47,30.39,29.54,0,0,0,0.26
2013-11-27,54.7,42.9,29.1,53.6,40.2,22.5,96,90,76,30.12,29.46,0,0,0,0.79
2013-11-28,42.3,30.3,21.4,27.8,21.5,16.5,83,70,49,30.47,30.12,0,0,0,0.00
2013-11-29,48.0,34.3,25.0,31.0,24.5,20.1,87,69,44,30.62,30.46,0,0,0,0.00
2013-11-30,47.0,34.0,25.7,33.3,25.8,19.9,84,72,57,30.64,30.35,0,0,0,0.00
2013-12-1,55.7,38.6,28.1,41.1,30.3,23.9,88,74,45,30.35,30.01,0,0,0,0.00
2013-12-2,57.5,41.2,32.9,47.0,35.3,27.9,88,80,58,30.01,29.81,0,0,0,0.00
2013-12-3,58.3,46.7,35.0,46.7,40.3,31.8,90,79,61,29.97,29.84,0,0,0,0.00
2013-12-4,61.8,56.8,52.0,56.7,52.6,46.3,90,86,79,30.05,29.95,0,0,0,0.02
2013-12-5,69.8,63.4,53.1,67.2,60.9,50.0,93,91,89,30.10,29.99,0,0,0,0.06
2013-12-6,77.9,70.9,66.8,70.9,64.8,61.2,100,82,63,30.02,29.91,0,0,0,0.00
2013-12-7,69.8,48.4,41.6,64.3,42.9,32.4,90,82,70,30.44,29.94,0,0,0,0.17
2013-12-8,41.5,37.1,33.7,36.5,32.0,27.3,91,82,67,30.46,30.28,0,0,0,0.09
2013-12-9,50.8,44.2,38.6,48.8,42.1,36.2,93,92,91,30.28,30.03,0,0,0,0.22
2013-12-10,53.3,45.8,29.3,51.6,43.6,26.4,94,92,85,30.30,29.90,0,0,0,0.48
2013-12-11,46.5,33.7,27.6,33.4,27.6,22.3,91,79,52,30.44,30.27,0,0,0,0.00
2013-12-12,43.1,33.0,23.9,29.3,21.9,12.5,87,66,34,30.41,30.25,0,0,0,0.00
2013-12-13,48.9,32.3,22.2,42.7,22.9,16.5,82,70,37,30.39,30.26,0,0,0,0.00
2013-12-14,47.0,41.9,36.3,43.3,36.5,28.2,91,81,54,30.27,29.75,0,0,0,0.75
2013-12-15,52.5,43.3,31.5,45.0,36.6,25.5,92,78,61,30.04,29.67,0,0,0,0.02
2013-12-16,52.5,38.3,31.0,42.4,31.7,25.9,89,78,55,30.16,30.03,0,0,0,0.01
2013-12-17,60.4,45.0,34.3,44.6,36.2,30.9,90,73,44,30.10,29.84,0,0,0,0.00
2013-12-18,47.1,36.0,26.7,34.8,23.8,14.5,79,63,36,30.27,30.01,0,0,0,0.00
2013-12-19,59.9,40.0,25.6,43.4,26.5,18.8,81,62,27,30.31,30.19,0,0,0,0.00
2013-12-20,66.3,50.7,38.8,54.5,42.7,30.0,86,74,62,30.22,30.08,0,0,0,0.00
2013-12-21,73.5,63.4,51.3,65.6,57.0,46.9,91,80,65,30.12,29.99,0,0,0,0.00
2013-12-22,76.8,71.5,67.4,70.3,66.3,59.6,90,84,66,30.05,29.97,0,0,0,0.02
2013-12-23,73.7,65.1,47.1,73.3,63.4,43.4,100,94,87,30.12,29.96,0,0,0,1.52
2013-12-24,47.7,40.2,27.9,44.9,31.0,15.1,90,70,53,30.44,30.10,0,0,0,0.03
2013-12-25,37.6,27.9,20.5,19.0,14.8,12.3,71,58,39,30.55,30.39,0,0,0,0.00
2013-12-26,49.5,38.5,28.2,31.4,26.1,19.9,80,62,43,30.35,30.21,0,0,0,0.00
2013-12-27,51.7,28.8,24.1,33.0,21.3,18.8,82,74,34,30.46,30.35,0,0,0,0.00
2013-12-28,57.0,39.0,26.4,40.0,27.9,19.7,85,67,40,30.40,30.14,0,0,0,0.00
2013-12-29,67.8,52.3,44.8,65.4,48.0,34.5,92,85,58,30.14,29.66,0,0,0,1.56
2013-12-30,57.5,48.8,42.5,55.5,45.6,35.5,94,89,76,30.11,29.88,0,0,0,0.01
2013-12-31,49.5,39.6,30.4,40.1,31.8,24.7,88,75,48,30.33,30.10,0,0,0,0.02
2014-1-1,48.0,35.5,30.1,41.0,27.9,23.8,83,75,49,30.41,30.13,0,0,0,0.00
2014-1-2,50.8,42.7,34.6,47.6,37.2,27.5,89,81,68,30.13,29.55,0,0,0,0.19